Flag for U.S.A. Weather past 2 weeks in Vista, California, U.S.A.

Now
72 °F

Sunny.


Feels Like: 73 °F
Forecast: 58 / 77 °F
Wind: 7 mph from Southwest

Location: McClellan-Palomar Airport

Current Time: Sep 30, 2014 at 6:40:39 PM

Latest Report: Sep 30, 2014 at 5:53 PM


Visibility: 10 mi

Pressure: 29.76 "Hg

Humidity: 76%

Dew point: 64 °F

Location of VistaLocation

Historic Weather in Vista — Graph

°F

Vista temperature yesterday

Maximum temperature yesterday: 72 °F (at 1:53 PM)
Minimum temperature yesterday: 60 °F (at 5:53 AM)
Average temperature yesterday: 67 °F

Past Weeks' High & Low Weather Summary

 TemperatureHumidityPressure
High98 °F (Sep 16, 4:53 PM)97% (Sep 24, 6:01 AM)29.98 "Hg (Sep 24, 6:01 AM)
Low60 °F (Sep 29, 5:53 AM)28% (Sep 16, 5:53 PM)29.66 "Hg (Sep 16, 5:53 PM)
Average72 °F72%29.86 "Hg
* Reported Sep 15 4:53 PM — Sep 30 4:53 PM, Vista, Weather by CustomWeather, © 2014

Note: Actual official high and low records may vary slightly from our data, if they occured in-between our weather recording intervals... More about our weather records

Advertising

Vista weather history for previous 24 hours

 ConditionsComfort  
Time TempWeatherWind HumidityBarometerVisibility
4:53 PM
Sep 30
74 °FSunny.9 mph67%29.76 "Hg10 mi
3:53 PM74 °FSunny.8 mph69%29.76 "Hg10 mi
2:53 PM74 °FSunny.6 mph69%29.78 "Hg10 mi
1:53 PM75 °FSunny.8 mph62%29.79 "Hg10 mi
12:53 PM73 °FSunny.8 mph62%29.82 "Hg10 mi
11:53 AM73 °FSunny.10 mph62%29.83 "Hg10 mi
10:53 AM75 °FSunny.7 mph54%29.84 "Hg10 mi
9:53 AM73 °FSunny.5 mph59%29.85 "Hg10 mi
8:53 AM71 °FSunny.No wind61%29.85 "Hg10 mi
7:53 AM65 °FSunny.No wind76%29.85 "Hg10 mi
6:53 AM63 °FClear.3 mph78%29.83 "Hg10 mi
5:53 AM63 °FClear.No wind81%29.83 "Hg10 mi
4:53 AM63 °FClear.No wind81%29.84 "Hg10 mi
3:53 AM64 °FClear.No wind81%29.84 "Hg10 mi
2:53 AM64 °FClear.3 mph81%29.85 "Hg10 mi
1:53 AM65 °FClear.3 mph81%29.86 "Hg10 mi
12:53 AM65 °FClear.3 mph81%29.87 "Hg10 mi
11:53 PM
Sep 29
66 °FClear.5 mph81%29.87 "Hg10 mi
10:53 PM67 °FClear.No wind81%29.87 "Hg10 mi
9:53 PM67 °FClear.6 mph81%29.87 "Hg10 mi
8:53 PM68 °FClear.6 mph78%29.86 "Hg10 mi
7:53 PM68 °FClear.3 mph78%29.85 "Hg10 mi
6:53 PM69 °FPassing clouds.6 mph79%29.84 "Hg10 mi
Weather by CustomWeather, © 2014

See weather overviewHow to use our weather pages